Time,TemperatureF,DewpointF,PressureIn,WindDirection,WindDirectionDegrees,WindSpeedMPH,WindSpeedGustMPH,Humidity,HourlyPrecipIn,Conditions,Clouds,dailyrainin,SolarRadiationWatts/m^2,SoftwareType,DateUTC
2013-05-12 00:05:00,47.9,32.0,30.23,NNW,346,0.0,0.0,53,0.00,,,0.00,0,weatherlink.com 1.10,2013-05-12 05:05:00,
2013-05-12 00:22:00,46.5,32.0,30.23,NNW,346,0.0,0.0,57,0.00,,,0.00,0,weatherlink.com 1.10,2013-05-12 05:22:00,
2013-05-12 00:39:00,45.2,31.0,30.23,NNW,346,0.0,0.0,57,0.00,,,0.00,0,weatherlink.com 1.10,2013-05-12 05:39:00,
2013-05-12 00:55:00,44.1,31.0,30.23,NNW,346,0.0,0.0,61,0.00,,,0.00,0,weatherlink.com 1.10,2013-05-12 05:55:00,
2013-05-12 01:12:00,43.3,31.0,30.22,NNW,346,0.0,0.0,62,0.00,,,0.00,0,weatherlink.com 1.10,2013-05-12 06:12:00,
2013-05-12 01:29:00,42.7,32.0,30.22,NNW,346,0.0,0.0,66,0.00,,,0.00,0,weatherlink.com 1.10,2013-05-12 06:29:00,
2013-05-12 01:45:00,42.0,32.0,30.22,NNW,346,0.0,0.0,68,0.00,,,0.00,0,weatherlink.com 1.10,2013-05-12 06:45:00,
2013-05-12 02:02:00,41.5,32.0,30.22,NNW,346,0.0,0.0,69,0.00,,,0.00,0,weatherlink.com 1.10,2013-05-12 07:02:00,
2013-05-12 02:19:00,41.0,33.0,30.22,NNW,346,0.0,0.0,72,0.00,,,0.00,0,weatherlink.com 1.10,2013-05-12 07:19:00,
2013-05-12 02:35:00,40.3,32.0,30.21,NNW,346,0.0,0.0,73,0.00,,,0.00,0,weatherlink.com 1.10,2013-05-12 07:35:00,
2013-05-12 02:53:00,39.5,32.0,30.22,NNW,346,0.0,0.0,75,0.00,,,0.00,0,weatherlink.com 1.10,2013-05-12 07:53:00,
2013-05-12 03:09:00,39.0,31.0,30.21,NNW,346,0.0,0.0,74,0.00,,,0.00,0,weatherlink.com 1.10,2013-05-12 08:09:00,
2013-05-12 03:25:00,38.5,31.0,30.21,NNW,346,0.0,0.0,74,0.00,,,0.00,0,weatherlink.com 1.10,2013-05-12 08:25:00,
2013-05-12 03:42:00,38.1,31.0,30.21,NNW,346,0.0,0.0,74,0.00,,,0.00,0,weatherlink.com 1.10,2013-05-12 08:42:00,
2013-05-12 03:58:00,37.8,31.0,30.22,NNW,346,0.0,0.0,77,0.00,,,0.00,0,weatherlink.com 1.10,2013-05-12 08:58:00,
2013-05-12 04:15:00,37.5,32.0,30.22,NNW,346,0.0,0.0,79,0.00,,,0.00,0,weatherlink.com 1.10,2013-05-12 09:15:00,
2013-05-12 04:31:00,37.2,32.0,30.22,NNW,346,0.0,0.0,80,0.00,,,0.00,0,weatherlink.com 1.10,2013-05-12 09:31:00,
2013-05-12 04:47:00,36.9,31.0,30.22,NNW,346,0.0,0.0,80,0.00,,,0.00,0,weatherlink.com 1.10,2013-05-12 09:47:00,
2013-05-12 05:04:00,36.6,31.0,30.23,NNW,346,0.0,0.0,81,0.00,,,0.00,0,weatherlink.com 1.10,2013-05-12 10:04:00,
2013-05-12 05:20:00,36.5,32.0,30.23,NNW,346,0.0,0.0,82,0.00,,,0.00,0,weatherlink.com 1.10,2013-05-12 10:20:00,
2013-05-12 05:37:00,36.4,32.0,30.24,NNW,346,0.0,0.0,83,0.00,,,0.00,0,weatherlink.com 1.10,2013-05-12 10:37:00,
2013-05-12 05:53:00,36.3,31.0,30.24,NNW,346,0.0,0.0,82,0.00,,,0.00,0,weatherlink.com 1.10,2013-05-12 10:53:00,
2013-05-12 06:10:00,36.2,31.0,30.24,NNW,346,0.0,0.0,81,0.00,,,0.00,0,weatherlink.com 1.10,2013-05-12 11:10:00,
2013-05-12 06:27:00,36.4,31.0,30.24,NNW,346,0.0,0.0,79,0.00,,,0.00,11,weatherlink.com 1.10,2013-05-12 11:27:00,
2013-05-12 06:43:00,36.8,31.0,30.24,NNW,346,0.0,0.0,78,0.00,,,0.00,21,weatherlink.com 1.10,2013-05-12 11:43:00,
2013-05-12 06:59:00,37.3,31.0,30.24,NNW,346,0.0,0.0,79,0.00,,,0.00,53,weatherlink.com 1.10,2013-05-12 11:59:00,
2013-05-12 07:16:00,38.6,33.0,30.25,NNW,346,0.0,0.0,79,0.00,,,0.00,98,weatherlink.com 1.10,2013-05-12 12:16:00,
2013-05-12 07:33:00,40.7,34.0,30.25,NNW,346,0.0,0.0,77,0.00,,,0.00,151,weatherlink.com 1.10,2013-05-12 12:33:00,
2013-05-12 07:49:00,43.5,36.0,30.26,NNW,346,0.0,0.0,76,0.00,,,0.00,60,weatherlink.com 1.10,2013-05-12 12:49:00,
2013-05-12 08:05:00,45.8,37.0,30.25,NNW,346,0.0,1.0,70,0.00,,,0.00,53,weatherlink.com 1.10,2013-05-12 13:05:00,
2013-05-12 08:22:00,47.7,37.0,30.26,NNW,346,0.0,0.0,66,0.00,,,0.00,56,weatherlink.com 1.10,2013-05-12 13:22:00,
2013-05-12 08:38:00,49.4,36.0,30.27,North,355,0.0,0.0,60,0.00,,,0.00,70,weatherlink.com 1.10,2013-05-12 13:38:00,
2013-05-12 08:55:00,50.9,35.0,30.27,North,349,0.0,2.0,55,0.00,,,0.00,214,weatherlink.com 1.10,2013-05-12 13:55:00,
2013-05-12 09:12:00,52.3,36.0,30.26,North,349,0.0,0.0,54,0.00,,,0.00,178,weatherlink.com 1.10,2013-05-12 14:12:00,
2013-05-12 09:28:00,54.3,36.0,30.26,North,349,0.0,3.0,50,0.00,,,0.00,141,weatherlink.com 1.10,2013-05-12 14:28:00,
2013-05-12 09:44:00,55.5,36.0,30.26,North,349,0.0,2.0,48,0.00,,,0.00,269,weatherlink.com 1.10,2013-05-12 14:44:00,
2013-05-12 10:02:00,56.5,34.0,30.25,North,349,0.0,1.0,43,0.00,,,0.00,350,weatherlink.com 1.10,2013-05-12 15:02:00,
2013-05-12 10:18:00,57.0,32.0,30.25,North,349,0.0,0.0,38,0.00,,,0.00,295,weatherlink.com 1.10,2013-05-12 15:18:00,
2013-05-12 10:35:00,58.3,32.0,30.25,North,5,0.0,3.0,37,0.00,,,0.00,388,weatherlink.com 1.10,2013-05-12 15:35:00,
2013-05-12 10:53:00,58.8,33.0,30.25,North,11,0.0,4.0,38,0.00,,,0.00,791,weatherlink.com 1.10,2013-05-12 15:53:00,
2013-05-12 11:11:00,60.0,36.0,30.25,North,10,0.0,5.0,41,0.00,,,0.00,330,weatherlink.com 1.10,2013-05-12 16:11:00,
2013-05-12 11:30:00,60.4,35.0,30.25,NE,34,0.0,2.0,38,0.00,,,0.00,580,weatherlink.com 1.10,2013-05-12 16:30:00,
2013-05-12 11:47:00,61.6,34.0,30.24,NE,35,0.0,4.0,36,0.00,,,0.00,963,weatherlink.com 1.10,2013-05-12 16:47:00,
2013-05-12 12:05:00,61.7,42.0,30.23,NE,47,0.0,3.0,48,0.00,,,0.00,947,weatherlink.com 1.10,2013-05-12 17:05:00,
2013-05-12 12:22:00,62.6,40.0,30.22,NE,52,0.0,3.0,43,0.00,,,0.00,937,weatherlink.com 1.10,2013-05-12 17:22:00,
2013-05-12 12:38:00,63.6,40.0,30.21,ENE,66,0.0,4.0,42,0.00,,,0.00,1023,weatherlink.com 1.10,2013-05-12 17:38:00,
2013-05-12 12:54:00,63.2,38.0,30.20,ENE,66,0.0,3.0,39,0.00,,,0.00,308,weatherlink.com 1.10,2013-05-12 17:54:00,
2013-05-12 13:11:00,64.5,40.0,30.19,ENE,66,0.0,3.0,41,0.00,,,0.00,969,weatherlink.com 1.10,2013-05-12 18:11:00,
2013-05-12 13:27:00,65.0,41.0,30.19,East,95,0.0,8.0,42,0.00,,,0.00,983,weatherlink.com 1.10,2013-05-12 18:27:00,
2013-05-12 13:44:00,66.3,38.0,30.18,East,86,0.0,8.0,35,0.00,,,0.00,1027,weatherlink.com 1.10,2013-05-12 18:44:00,
2013-05-12 14:00:00,65.4,40.0,30.17,SE,132,0.0,5.0,40,0.00,,,0.00,450,weatherlink.com 1.10,2013-05-12 19:00:00,
2013-05-12 14:17:00,65.5,41.0,30.17,SE,132,0.0,3.0,41,0.00,,,0.00,548,weatherlink.com 1.10,2013-05-12 19:17:00,
2013-05-12 14:33:00,65.1,37.0,30.17,SE,132,0.0,2.0,36,0.00,,,0.00,468,weatherlink.com 1.10,2013-05-12 19:33:00,
2013-05-12 14:49:00,66.4,44.0,30.16,SE,140,8.0,8.0,44,0.00,,,0.00,991,weatherlink.com 1.10,2013-05-12 19:49:00,
2013-05-12 15:07:00,66.0,39.0,30.16,SE,146,0.0,8.0,37,0.00,,,0.00,517,weatherlink.com 1.10,2013-05-12 20:07:00,
2013-05-12 15:23:00,66.2,40.0,30.15,SE,146,0.0,6.0,38,0.00,,,0.00,861,weatherlink.com 1.10,2013-05-12 20:23:00,
2013-05-12 15:40:00,68.2,44.0,30.15,SE,146,0.0,1.0,41,0.00,,,0.00,886,weatherlink.com 1.10,2013-05-12 20:40:00,
2013-05-12 15:56:00,66.1,40.0,30.14,SSE,147,0.0,8.0,38,0.00,,,0.00,480,weatherlink.com 1.10,2013-05-12 20:56:00,
2013-05-12 16:13:00,65.1,40.0,30.14,SSE,147,0.0,1.0,40,0.00,,,0.00,257,weatherlink.com 1.10,2013-05-12 21:13:00,
2013-05-12 16:29:00,67.2,43.0,30.13,SSE,147,0.0,5.0,42,0.00,,,0.00,838,weatherlink.com 1.10,2013-05-12 21:29:00,
2013-05-12 16:45:00,66.4,40.0,30.12,SSE,148,0.0,7.0,38,0.00,,,0.00,239,weatherlink.com 1.10,2013-05-12 21:45:00,
2013-05-12 17:02:00,65.8,42.0,30.12,SSE,148,4.0,4.0,42,0.00,,,0.00,608,weatherlink.com 1.10,2013-05-12 22:02:00,
2013-05-12 17:18:00,66.0,42.0,30.12,SSE,148,1.0,5.0,41,0.00,,,0.00,246,weatherlink.com 1.10,2013-05-12 22:18:00,
2013-05-12 17:34:00,66.7,42.0,30.12,SSE,154,0.0,10.0,40,0.00,,,0.00,369,weatherlink.com 1.10,2013-05-12 22:34:00,
2013-05-12 17:51:00,66.0,42.0,30.12,SSE,159,0.0,7.0,41,0.00,,,0.00,267,weatherlink.com 1.10,2013-05-12 22:51:00,
2013-05-12 18:08:00,65.3,42.0,30.11,SSE,160,0.0,8.0,42,0.00,,,0.00,199,weatherlink.com 1.10,2013-05-12 23:08:00,
2013-05-12 18:24:00,64.7,41.0,30.11,SSE,160,5.0,9.0,42,0.00,,,0.00,195,weatherlink.com 1.10,2013-05-12 23:24:00,
2013-05-12 18:40:00,64.5,45.0,30.11,South,176,1.0,9.0,49,0.00,,,0.00,415,weatherlink.com 1.10,2013-05-12 23:40:00,
2013-05-12 18:57:00,64.5,44.0,30.10,South,171,0.0,10.0,47,0.00,,,0.00,269,weatherlink.com 1.10,2013-05-12 23:57:00,
2013-05-12 19:13:00,63.4,44.0,30.10,South,174,3.0,7.0,50,0.00,,,0.00,178,weatherlink.com 1.10,2013-05-13 00:13:00,
2013-05-12 19:29:00,62.7,43.0,30.10,South,174,0.0,6.0,49,0.00,,,0.00,113,weatherlink.com 1.10,2013-05-13 00:29:00,
2013-05-12 19:46:00,61.8,43.0,30.09,South,174,0.0,4.0,51,0.00,,,0.00,40,weatherlink.com 1.10,2013-05-13 00:46:00,
2013-05-12 20:03:00,60.9,44.0,30.10,South,174,0.0,0.0,53,0.00,,,0.00,25,weatherlink.com 1.10,2013-05-13 01:03:00,
2013-05-12 20:19:00,60.5,44.0,30.10,South,174,0.0,0.0,54,0.00,,,0.00,9,weatherlink.com 1.10,2013-05-13 01:19:00,
2013-05-12 21:03:00,58.4,45.0,30.11,South,174,0.0,0.0,60,0.00,,,0.00,0,weatherlink.com 1.10,2013-05-13 02:03:00,
2013-05-12 21:19:00,57.5,44.0,30.11,South,174,0.0,0.0,61,0.00,,,0.00,0,weatherlink.com 1.10,2013-05-13 02:19:00,
2013-05-12 21:35:00,56.7,44.0,30.12,South,174,0.0,0.0,63,0.00,,,0.00,0,weatherlink.com 1.10,2013-05-13 02:35:00,
2013-05-12 21:51:00,55.9,44.0,30.11,South,174,0.0,0.0,65,0.00,,,0.00,0,weatherlink.com 1.10,2013-05-13 02:51:00,
2013-05-12 22:08:00,55.0,44.0,30.12,South,174,0.0,0.0,66,0.00,,,0.00,0,weatherlink.com 1.10,2013-05-13 03:08:00,
2013-05-12 22:24:00,54.6,43.0,30.12,South,174,0.0,0.0,66,0.00,,,0.00,0,weatherlink.com 1.10,2013-05-13 03:24:00,
2013-05-12 22:40:00,54.5,43.0,30.12,South,174,0.0,0.0,66,0.00,,,0.00,0,weatherlink.com 1.10,2013-05-13 03:40:00,
2013-05-12 22:57:00,54.2,43.0,30.12,South,174,0.0,0.0,67,0.00,,,0.00,0,weatherlink.com 1.10,2013-05-13 03:57:00,
2013-05-12 23:14:00,53.8,43.0,30.12,South,174,0.0,0.0,68,0.00,,,0.00,0,weatherlink.com 1.10,2013-05-13 04:14:00,
2013-05-12 23:30:00,53.3,43.0,30.12,South,174,0.0,0.0,69,0.00,,,0.00,0,weatherlink.com 1.10,2013-05-13 04:30:00,
2013-05-12 23:47:00,52.8,43.0,30.12,South,174,0.0,0.0,70,0.00,,,0.00,0,weatherlink.com 1.10,2013-05-13 04:47:00,